Regional Weather Roundup
Issued by NWS San Angelo, TX

Home | Current Version | Previous Version | Text Only | Print | Product List | Glossary On
Versions: 1 2 3 4 5 6 7 8 9 10 11 12 13 14 15 16 17 18 19 20 21 22 23 24 25 26 27 28 29 30 31 32 33 34 35 36 37 38 39 40 41 42 43 44 45 46 47 48 49 50
095
ASUS44 KSJT 271011
RWRSJT
WEST CENTRAL TEXAS REGIONAL WEATHER ROUNDUP
NATIONAL WEATHER SERVICE SAN ANGELO TX
500 AM CDT TUE SEP 27 2016

NOTE: "FAIR" INDICATES FEW OR NO CLOUDS BELOW 12,000 FEET WITH NO
SIGNIFICANT WEATHER AND/OR OBSTRUCTIONS TO VISIBILITY.

TXZ049-054-064>066-071>073-076>078-098-099-113-114-127-128-139-140-
154-155-168>170-271100
...LOCATIONS ACROSS WEST CENTRAL TEXAS...

CITY           SKY/WX    TMP DP  RH WIND       PRES   REMARKS
SAN ANGELO     CLOUDY    63  50  62 NW8       30.18F
ABILENE        CLOUDY    59  55  87 CALM      30.19F
DYESS AFB      PTCLDY    59  52  78 W5        30.18S
JUNCTION       CLOUDY    62  32  32 CALM      30.15F
SWEETWATER     PTCLDY    59  49  70 W5        30.23F
BROWNWOOD      CLOUDY    63  54  72 N6        30.15F
COLEMAN        CLOUDY    62  50  65 N6        30.17F
SONORA         CLOUDY    63  52  67 N6        30.23S
OZONA          PTSUNNY   61  46  59 N8        30.23S
BRADY          NOT AVBL
$$

TEXAS PANHANDLE/OKLAHOMA PANHANDLE

CITY           SKY/WX    TMP DP  RH WIND       PRES   REMARKS
AMARILLO       CLOUDY    53  38  56 W6        30.25F
BORGER         CLOUDY    53  39  59 W10       30.22F
CANADIAN       CLOUDY    44  42  95 SW3       30.19F
DALHART        CLOUDY    48  37  65 W9        30.27F
DUMAS          SUNNY     48  37  65 W8        30.25F
GUYMON         NOT AVBL
HEREFORD       PTSUNNY   47  42  82 W6        30.27F
PAMPA          CLOUDY    49  42  75 W10       30.23S
PERRYTON       CLEAR     58  40  50 W10       30.18F
$$

SOUTHERN PANHANDLE/SOUTH PLAINS/ROLLING PLAINS

CITY           SKY/WX    TMP DP  RH WIND       PRES   REMARKS
LUBBOCK        CLOUDY    52  45  77 W6        30.24F
SNYDER           N/A     58  48  69 CALM      30.22F
CHILDRESS      PTCLDY    55  45  68 NW3       30.20F
SEMINOLE       CLOUDY    57  53  85 CALM      30.27F
$$

PERMIAN BASIN

CITY           SKY/WX    TMP DP  RH WIND       PRES   REMARKS
MIDLAND        LGT RAIN  55  49  80 SW6       30.25F
ODESSA         LGT RAIN  55  51  86 SW3       30.26F
WINK           MOCLDY    54  52  93 W5        30.25F
$$

FAR WEST/SOUTHWEST MOUNTAINS/TRANS PECOS

CITY           SKY/WX    TMP DP  RH WIND       PRES   REMARKS
ALPINE         CLOUDY    49  49  98 NE3       30.34F
DRYDEN           N/A     60  50  69 N15       30.19F
EL PASO        CLOUDY    57  44  62 E3        30.25F
FORT STOCKTON  CLOUDY    52  50  93 NW5       30.27F
GUADALUPE PASS CLOUDY    48  41  76 E14       30.31S
MARFA          CLOUDY   N/A N/A N/A CALM      30.30F
PECOS          CLOUDY    56  52  85 CALM        N/A
$$

DALLAS/FORT WORTH METROPLEX

CITY           SKY/WX    TMP DP  RH WIND       PRES   REMARKS
DFW AIRPORT    CLOUDY    68  58  70 N9        30.11S
FTW MEACHAM    CLOUDY    65  54  67 NW3       30.12F
DAL-EXECUTIVE  CLOUDY    66  61  84 N6        30.10F
GRAND PRAIRIE  CLOUDY    67  60  76 CALM      30.13S
ADDISON        CLOUDY    66  61  82 N5        30.14S
MESQUITE       CLOUDY    66  60  79 N6        30.11S
LANCASTER      CLOUDY    67  60  77 N3        30.11F
$$

NORTH CENTRAL TEXAS

CITY           SKY/WX    TMP DP  RH WIND       PRES   REMARKS
SHRMAN/DENISON CLOUDY    57  56  96 CALM      30.14S
GAINESVILLE      N/A     54  48  79 CALM      30.16S
BRIDGEPORT     PTSUNNY   55  55 100 CALM      30.16F
DENTON         CLOUDY    57  54  89 N6        30.13S
WAXAHACHIE     CLOUDY    66  60  82 N6        30.12F
GRANBURY       PTSUNNY   65  62  90 CALM      30.13F
$$

WESTERN NORTH TEXAS

CITY           SKY/WX    TMP DP  RH WIND       PRES   REMARKS
WICHITA FALLS  CLOUDY    56  48  74 NW6       30.15F
VERNON         CLOUDY    55  47  75 NW6       30.18F
BRECKENRIDGE     N/A     60  52  74 NW5       30.17S
COMANCHE       CLOUDY    63  56  79 NW3       30.15S
$$

CENTRAL AND SOUTH CENTRAL TEXAS

CITY           SKY/WX    TMP DP  RH WIND       PRES   REMARKS
AUSTIN/BERGSTM CLOUDY    68  64  87 N8        30.08S
WACO           CLOUDY    67  62  84 N5        30.10F
HILLSBORO      CLOUDY    65  60  84 NE5       30.11S
TEMPLE         CLOUDY    66  62  87 N8        30.10S
KILLEEN-GRAY   CLOUDY    65  60  85 N8        30.10F
FORT HOOD      CLOUDY    65  60  85 N7        30.08F
GEORGETOWN     CLOUDY    66  61  82 N8        30.10S
LAGO VISTA     CLOUDY    65  62  90 N7        30.11S
SAN MARCOS     CLOUDY    66  63  88 N10       30.10S
NEW BRAUNFELS  CLOUDY    68  64  87 N9        30.06F
RANDOLPH AFB   CLOUDY    67  65  93 N7        30.08S
SAN ANTONIO    CLOUDY    66  61  84 N7        30.08F
STINSON        CLOUDY    69  61  75 N12       30.05F
PLEASANTON     NOT AVBL
LA GRANGE      DRIZZLE   69  66  89 N5        30.03F
GIDDINGS       CLOUDY    66  63  90 N5        30.10S
$$

EAST TEXAS

CITY           SKY/WX    TMP DP  RH WIND       PRES   REMARKS
PARIS          PTCLDY    59  54  82 N6        30.10F
CLARKSVILLE    NOT AVBL
TYLER          CLOUDY    66  60  81 N3        30.08S
LONGVIEW       MOCLDY    64  60  87 NW3       30.07R
PALESTINE      CLOUDY    66  62  86 CALM      30.09S
NACOGDOCHES    CLOUDY    64  59  82 CALM      30.03F
$$

TEXAS HILL COUNTRY AND EDWARDS PLATEAU

CITY           SKY/WX    TMP DP  RH WIND       PRES   REMARKS
LLANO          CLOUDY    66  66 100 CALM      30.16S
HORSESHOE BAY  CLOUDY    66  61  84 NW3       30.12S
KERRVILLE      CLOUDY    63  59  87 N5        30.13S
FREDERICKSBRG  CLOUDY    63  58  83 N8        30.13F
ROCKSPRINGS    CLOUDY    61  55  82 N7        30.18R
HONDO          CLOUDY    68  59  73 N7        30.09S
UVALDE         CLOUDY    65  59  80 CALM      30.10F
DEL RIO        CLOUDY    65  59  81 NW12      30.13F
$$

SOUTHEAST TEXAS

CITY           SKY/WX    TMP DP  RH WIND       PRES   REMARKS
COLLEGE STN    CLOUDY    68  65  90 NW5       30.06F
CALDWELL       NOT AVBL
CROCKETT       NOT AVBL
BRENHAM        CLOUDY    69  67  94 NW5       30.05S
HUNTSVILLE     CLOUDY    68  66  93 N3        30.05S
CONROE         CLOUDY    70  67  90 N5        30.03F
HOUSTON BUSH   CLOUDY    73  71  93 N10       30.01F
HOUSTON HOBBY  CLOUDY    74  71  91 N10       29.99F
PERLAND        LGT RAIN  77  71  82 N7        30.01S
WHARTON        PTSUNNY   70  67  91 N10       30.01F
$$

THE UPPER TEXAS COAST

CITY           SKY/WX    TMP DP  RH WIND       PRES   REMARKS
ORANGE         CLOUDY    72  72 100 N5        29.99F
PORT ARTHUR    CLOUDY    73  69  87 N12       29.97F
GALVESTON      CLOUDY    77  75  93 N13       29.98S
ANGLETON       CLOUDY    76  73  91 N8        29.99S
BAY CITY       CLOUDY    73  72  98 N7        30.00S FOG
$$

TEXAS COASTAL BEND, RIO GRANDE PLAINS DEEP SOUTH TEXAS

CITY           SKY/WX    TMP DP  RH WIND       PRES   REMARKS
VICTORIA       MOCLDY    68  65  90 N9        30.01F
BEEVILLE       CLOUDY    69  69 100 N7        30.02F
ROCKPORT       CLOUDY    70  67  90 N13       30.00S
PORT ARANSAS   CLOUDY    72  71  95 N15       29.98F
PORT LAVACA    MOSUNNY   70  70 100 CALM      30.00F
CORPUS CHRISTI CLOUDY    71  68  90 N14       30.00F
KINGSVILLE NAS CLOUDY    70  69  97 N9        30.00F
COTULLA        CLOUDY    69  64  84 N5        30.07F
LAREDO         CLOUDY    67  65  93 N8        30.07F
BROWNSVILLE    PTCLDY    76  74  93 N10       29.93F
PORT ISABEL    LGT RAIN  75  74  96 N13       29.93S
HEBBRONVILLE   CLOUDY    69  66  90 N9        30.05R
MCALLEN        CLOUDY    76  71  85 N15       29.97F
WESLACO        CLOUDY    74  71  91 N8        29.95F
FALFURRIAS     CLOUDY    71  66  85 N7        30.00F
EDINBURG       CLOUDY    75  70  83 N13G20    29.98F
$$




USA.gov is the U.S. government's official web portal to all federal, state and local government web resources and services.